| time (UTC) | temp F | wind direction | speed MPH | gust MPH | rain 1hr in | rain 24hr in | rain mn in | humidity % | barometer mb |
| 20260507113724 | 42 | 243 | 2.0 | 6.0 | 0.00 | 0.00 | 0.00 | 64 | 1013.2 |
| 20260507113220 | 42 | 208 | 3.0 | 3.0 | 0.00 | 0.00 | 0.00 | 63 | 1013.3 |
| 20260507112718 | 42 | 236 | 2.0 | 3.0 | 0.00 | 0.00 | 0.00 | 63 | 1013.2 |
| 20260507112215 | 42 | 230 | 2.0 | 5.0 | 0.00 | 0.00 | 0.00 | 63 | 1013.1 |
| 20260507111712 | 42 | 213 | 2.0 | 6.0 | 0.00 | 0.00 | 0.00 | 62 | 1013.3 |
| 20260507111209 | 41 | 212 | 3.0 | 3.0 | 0.00 | 0.00 | 0.00 | 62 | 1013.0 |
| 20260507110705 | 42 | 219 | 2.0 | 3.0 | 0.00 | 0.00 | 0.00 | 62 | 1013.0 |
| 20260507110202 | 42 | 212 | 3.0 | 3.0 | 0.00 | 0.00 | 0.00 | 61 | 1013.1 |
| 20260507105659 | 42 | 214 | 2.0 | 2.0 | 0.00 | 0.00 | 0.00 | 61 | 1013.2 |
| 20260507105155 | 42 | 218 | 3.0 | 5.0 | 0.00 | 0.00 | 0.00 | 60 | 1013.2 |
| 20260507104652 | 42 | 212 | 2.0 | 5.0 | 0.00 | 0.00 | 0.00 | 60 | 1013.3 |
| 20260507104148 | 42 | 210 | 2.0 | 2.0 | 0.00 | 0.00 | 0.00 | 60 | 1013.4 |
| 20260507103644 | 42 | 196 | 3.0 | 5.0 | 0.00 | 0.00 | 0.00 | 60 | 1013.5 |
| 20260507103141 | 42 | 197 | 2.0 | 3.0 | 0.00 | 0.00 | 0.00 | 60 | 1013.3 |
| 20260507102638 | 42 | 198 | 3.0 | 5.0 | 0.00 | 0.00 | 0.00 | 59 | 1013.4 |
| 20260507102134 | 42 | 207 | 3.0 | 6.0 | 0.00 | 0.00 | 0.00 | 59 | 1013.6 |
| 20260507101630 | 42 | 210 | 1.0 | 3.0 | 0.00 | 0.00 | 0.00 | 61 | 1013.5 |
| 20260507101126 | 42 | 227 | 1.0 | 3.0 | 0.00 | 0.00 | 0.00 | 60 | 1013.5 |
| 20260507100624 | 42 | 208 | 2.0 | 3.0 | 0.00 | 0.00 | 0.00 | 60 | 1013.4 |
| 20260507100122 | 42 | 220 | 2.0 | 3.0 | 0.00 | 0.00 | 0.00 | 60 | 1013.5 |
| 20260507095620 | 42 | 221 | 1.0 | 2.0 | 0.00 | 0.00 | 0.00 | 60 | 1013.8 |
| 20260507095116 | 43 | 222 | 1.0 | 2.0 | 0.00 | 0.00 | 0.00 | 58 | 1013.9 |
| 20260507094612 | 44 | 218 | 0.0 | 1.0 | 0.00 | 0.00 | 0.00 | 57 | 1013.8 |
| 20260507094109 | 44 | 205 | 1.0 | 2.0 | 0.00 | 0.00 | 0.00 | 56 | 1014.0 |
| 20260507093606 | 44 | 173 | 1.0 | 2.0 | 0.00 | 0.00 | 0.00 | 55 | 1014.1 |
| 20260507093105 | 44 | 215 | 1.0 | 2.0 | 0.00 | 0.00 | 0.00 | 54 | 1014.3 |
| 20260507092601 | 44 | 222 | 1.0 | 2.0 | 0.00 | 0.00 | 0.00 | 53 | 1014.3 |
| 20260507092058 | 44 | 226 | 0.0 | 2.0 | 0.00 | 0.00 | 0.00 | 53 | 1014.4 |
| 20260507091555 | 44 | 216 | 3.0 | 3.0 | 0.00 | 0.00 | 0.00 | 53 | 1014.2 |
| 20260507091051 | 44 | 209 | 3.0 | 3.0 | 0.00 | 0.00 | 0.00 | 53 | 1014.4 |
| 20260507090546 | 44 | 217 | 1.0 | 3.0 | 0.00 | 0.00 | 0.00 | 53 | 1014.5 |
| 20260507090044 | 44 | 219 | 1.0 | 3.0 | 0.00 | 0.00 | 0.00 | 53 | 1014.5 |
| 20260507085541 | 44 | 189 | 2.0 | 2.0 | 0.00 | 0.00 | 0.00 | 53 | 1014.4 |
| 20260507085037 | 44 | 215 | 2.0 | 5.0 | 0.00 | 0.00 | 0.00 | 54 | 1014.7 |
| 20260507084534 | 43 | 209 | 2.0 | 2.0 | 0.00 | 0.00 | 0.00 | 55 | 1014.7 |
| 20260507084031 | 43 | 223 | 2.0 | 3.0 | 0.00 | 0.00 | 0.00 | 55 | 1014.8 |
| 20260507083527 | 43 | 213 | 3.0 | 5.0 | 0.00 | 0.00 | 0.00 | 54 | 1014.7 |
| 20260507083025 | 44 | 225 | 3.0 | 3.0 | 0.00 | 0.00 | 0.00 | 54 | 1014.7 |
| 20260507082520 | 44 | 210 | 3.0 | 5.0 | 0.00 | 0.00 | 0.00 | 54 | 1014.9 |
| 20260507082017 | 44 | 219 | 2.0 | 3.0 | 0.00 | 0.00 | 0.00 | 54 | 1014.9 |
| 20260507081513 | 43 | 215 | 2.0 | 3.0 | 0.00 | 0.00 | 0.00 | 54 | 1015.0 |
| 20260507081010 | 43 | 209 | 1.0 | 6.0 | 0.00 | 0.00 | 0.00 | 53 | 1015.0 |
| 20260507080506 | 44 | 195 | 2.0 | 3.0 | 0.00 | 0.00 | 0.00 | 53 | 1015.1 |
| 20260507080002 | 44 | 220 | 2.0 | 5.0 | 0.00 | 0.00 | 0.00 | 53 | 1014.8 |
| 20260507075458 | 44 | 229 | 2.0 | 5.0 | 0.00 | 0.00 | 0.00 | 53 | 1015.1 |
| 20260507074954 | 44 | 223 | 3.0 | 5.0 | 0.00 | 0.00 | 0.00 | 52 | 1015.1 |
| 20260507074451 | 43 | 208 | 2.0 | 3.0 | 0.00 | 0.00 | 0.00 | 52 | 1015.1 |
| 20260507073950 | 43 | 231 | 3.0 | 6.0 | 0.00 | 0.00 | 0.00 | 52 | 1015.2 |
| 20260507073445 | 43 | 207 | 4.0 | 6.0 | 0.00 | 0.00 | 0.00 | 52 | 1015.1 |
| 20260507072942 | 43 | 189 | 4.0 | 7.0 | 0.00 | 0.00 | 0.00 | 52 | 1015.2 |
| 20260507072440 | 43 | 195 | 3.0 | 5.0 | 0.00 | 0.00 | 0.00 | 53 | 1015.3 |
| 20260507071937 | 43 | 217 | 2.0 | 6.0 | 0.00 | 0.00 | 0.00 | 52 | 1015.3 |
| 20260507071434 | 43 | 231 | 1.0 | 3.0 | 0.00 | 0.00 | 0.00 | 53 | 1015.5 |
| 20260507070930 | 43 | 201 | 2.0 | 3.0 | 0.00 | 0.00 | 0.00 | 53 | 1015.5 |
| 20260507070428 | 43 | 201 | 2.0 | 5.0 | 0.00 | 0.00 | 0.00 | 53 | 1015.4 |
| 20260507065924 | 43 | 223 | 2.0 | 5.0 | 0.00 | 0.00 | 0.00 | 53 | 1015.8 |
| 20260507065421 | 43 | 223 | 3.0 | 5.0 | 0.00 | 0.00 | 0.00 | 53 | 1015.6 |
| 20260507064913 | 43 | 215 | 2.0 | 3.0 | 0.00 | 0.00 | 0.00 | 53 | 1015.7 |
| 20260507064411 | 43 | 214 | 2.0 | 5.0 | 0.00 | 0.00 | 0.00 | 53 | 1015.6 |
| 20260507063909 | 43 | 230 | 3.0 | 6.0 | 0.00 | 0.00 | 0.00 | 52 | 1015.8 |
| 20260507063406 | 43 | 205 | 2.0 | 3.0 | 0.00 | 0.00 | 0.00 | 52 | 1015.8 |
| 20260507062903 | 44 | 223 | 2.0 | 3.0 | 0.00 | 0.00 | 0.00 | 51 | 1016.0 |
| 20260507062359 | 44 | 248 | 3.0 | 6.0 | 0.00 | 0.00 | 0.00 | 50 | 1015.8 |
| 20260507061857 | 44 | 221 | 2.0 | 5.0 | 0.00 | 0.00 | 0.00 | 51 | 1016.0 |
| 20260507061355 | 44 | 224 | 2.0 | 3.0 | 0.00 | 0.00 | 0.00 | 51 | 1016.1 |
| 20260507060853 | 44 | 240 | 2.0 | 3.0 | 0.00 | 0.00 | 0.00 | 50 | 1016.0 |
| 20260507060349 | 44 | 207 | 3.0 | 6.0 | 0.00 | 0.00 | 0.00 | 50 | 1016.3 |
| 20260507055846 | 44 | 204 | 2.0 | 3.0 | 0.00 | 0.00 | 0.00 | 49 | 1016.2 |
| 20260507055341 | 44 | 226 | 2.0 | 5.0 | 0.00 | 0.00 | 0.00 | 49 | 1016.1 |
| 20260507054838 | 44 | 224 | 3.0 | 3.0 | 0.00 | 0.00 | 0.00 | 48 | 1016.4 |
| 20260507054334 | 45 | 212 | 3.0 | 3.0 | 0.00 | 0.00 | 0.00 | 48 | 1016.3 |
| 20260507053832 | 45 | 225 | 3.0 | 5.0 | 0.00 | 0.00 | 0.00 | 47 | 1016.3 |
| 20260507053329 | 45 | 218 | 2.0 | 3.0 | 0.00 | 0.00 | 0.00 | 47 | 1016.3 |
| 20260507052828 | 45 | 213 | 2.0 | 3.0 | 0.00 | 0.00 | 0.00 | 47 | 1016.3 |
| 20260507052324 | 45 | 214 | 2.0 | 3.0 | 0.00 | 0.00 | 0.00 | 47 | 1016.4 |
| 20260507051822 | 45 | 225 | 2.0 | 2.0 | 0.00 | 0.00 | 0.00 | 47 | 1016.5 |
| 20260507051320 | 45 | 232 | 2.0 | 3.0 | 0.00 | 0.00 | 0.00 | 46 | 1016.5 |
| 20260507050816 | 45 | 207 | 2.0 | 3.0 | 0.00 | 0.00 | 0.00 | 46 | 1016.5 |
| 20260507050312 | 45 | 226 | 2.0 | 3.0 | 0.00 | 0.00 | 0.00 | 46 | 1016.4 |
| 20260507045809 | 45 | 220 | 3.0 | 3.0 | 0.00 | 0.00 | 0.00 | 45 | 1016.3 |
| 20260507045307 | 45 | 234 | 2.0 | 3.0 | 0.00 | 0.00 | 0.00 | 46 | 1016.6 |
| 20260507044803 | 45 | 219 | 2.0 | 3.0 | 0.00 | 0.00 | 0.00 | 46 | 1016.6 |
| 20260507044300 | 46 | 227 | 1.0 | 2.0 | 0.00 | 0.00 | 0.00 | 45 | 1016.5 |
| 20260507043756 | 46 | 229 | 2.0 | 3.0 | 0.00 | 0.00 | 0.00 | 44 | 1016.5 |
| 20260507043252 | 46 | 219 | 3.0 | 3.0 | 0.00 | 0.00 | 0.00 | 43 | 1016.8 |
| 20260507042749 | 46 | 221 | 2.0 | 5.0 | 0.00 | 0.00 | 0.00 | 44 | 1016.7 |
| 20260507042243 | 46 | 234 | 2.0 | 2.0 | 0.00 | 0.00 | 0.00 | 45 | 1016.6 |
| 20260507041742 | 45 | 227 | 2.0 | 3.0 | 0.00 | 0.00 | 0.00 | 45 | 1016.7 |
| 20260507041238 | 45 | 215 | 1.0 | 2.0 | 0.00 | 0.00 | 0.00 | 46 | 1016.6 |
| 20260507040735 | 44 | 227 | 1.0 | 2.0 | 0.00 | 0.00 | 0.00 | 48 | 1016.9 |
| 20260507040231 | 44 | 237 | 0.0 | 1.0 | 0.00 | 0.00 | 0.00 | 50 | 1016.8 |
| 20260507035727 | 45 | 242 | 0.0 | 0.0 | 0.00 | 0.00 | 0.00 | 47 | 1016.9 |
| 20260507035222 | 46 | 238 | 0.0 | 1.0 | 0.00 | 0.00 | 0.00 | 47 | 1016.8 |
| 20260507034720 | 45 | 235 | 1.0 | 2.0 | 0.00 | 0.00 | 0.00 | 44 | 1016.9 |
| 20260507034217 | 45 | 246 | 0.0 | 1.0 | 0.00 | 0.00 | 0.00 | 45 | 1017.0 |
| 20260507033716 | 46 | 244 | 0.0 | 1.0 | 0.00 | 0.00 | 0.00 | 45 | 1017.2 |
| 20260507033213 | 46 | 241 | 1.0 | 1.0 | 0.00 | 0.00 | 0.00 | 42 | 1016.8 |
| 20260507032710 | 47 | 240 | 0.0 | 1.0 | 0.00 | 0.00 | 0.00 | 40 | 1017.0 |
| 20260507032205 | 47 | 240 | 0.0 | 1.0 | 0.00 | 0.00 | 0.00 | 38 | 1017.0 |
| 20260507031703 | 47 | 247 | 0.0 | 1.0 | 0.00 | 0.00 | 0.00 | 37 | 1017.0 |
| 20260507031159 | 46 | 247 | 0.0 | 1.0 | 0.00 | 0.00 | 0.00 | 38 | 1017.1 |
| 20260507030656 | 46 | 247 | 0.0 | 0.0 | 0.00 | 0.00 | 0.00 | 40 | 1017.0 |
| 20260507030154 | 46 | 246 | 0.0 | 0.0 | 0.00 | 0.00 | 0.00 | 41 | 1017.1 |
| 20260507025651 | 46 | 243 | 0.0 | 0.0 | 0.00 | 0.00 | 0.00 | 41 | 1017.0 |
| 20260507025148 | 46 | 238 | 0.0 | 1.0 | 0.00 | 0.00 | 0.00 | 41 | 1016.9 |
| 20260507024646 | 47 | 238 | 0.0 | 0.0 | 0.00 | 0.00 | 0.00 | 42 | 1016.9 |
| 20260507024143 | 47 | 233 | 1.0 | 1.0 | 0.00 | 0.00 | 0.00 | 41 | 1017.0 |
| 20260507023638 | 48 | 243 | 0.0 | 0.0 | 0.00 | 0.00 | 0.00 | 42 | 1016.9 |
| 20260507023136 | 48 | 246 | 0.0 | 0.0 | 0.00 | 0.00 | 0.00 | 38 | 1016.7 |
| 20260507022633 | 48 | 248 | 0.0 | 0.0 | 0.00 | 0.00 | 0.00 | 38 | 1016.7 |
| 20260507022128 | 48 | 248 | 0.0 | 0.0 | 0.00 | 0.00 | 0.00 | 38 | 1016.8 |
| 20260507021625 | 49 | 249 | 0.0 | 0.0 | 0.00 | 0.00 | 0.00 | 37 | 1016.8 |
| 20260507021120 | 48 | 249 | 0.0 | 0.0 | 0.00 | 0.00 | 0.00 | 37 | 1016.6 |
| 20260507020619 | 48 | 250 | 0.0 | 0.0 | 0.00 | 0.00 | 0.00 | 38 | 1016.8 |
| 20260507020115 | 49 | 258 | 0.0 | 0.0 | 0.00 | 0.00 | 0.00 | 41 | 1016.8 |
| 20260507015613 | 49 | 252 | 0.0 | 0.0 | 0.00 | 0.00 | 0.00 | 40 | 1016.8 |
| 20260507015110 | 50 | 248 | 0.0 | 0.0 | 0.00 | 0.00 | 0.00 | 37 | 1016.6 |
| 20260507014607 | 50 | 247 | 0.0 | 0.0 | 0.00 | 0.00 | 0.00 | 36 | 1016.7 |
| 20260507014103 | 50 | 251 | 0.0 | 1.0 | 0.00 | 0.00 | 0.00 | 36 | 1016.9 |
| 20260507013559 | 50 | 249 | 0.0 | 0.0 | 0.00 | 0.00 | 0.00 | 36 | 1016.8 |
| 20260507013056 | 50 | 251 | 0.0 | 0.0 | 0.00 | 0.00 | 0.00 | 37 | 1016.7 |
| 20260507012553 | 51 | 256 | 0.0 | 0.0 | 0.00 | 0.00 | 0.00 | 36 | 1016.7 |
| 20260507012044 | 51 | 252 | 0.0 | 0.0 | 0.00 | 0.00 | 0.00 | 35 | 1016.8 |
| 20260507011542 | 51 | 249 | 0.0 | 0.0 | 0.00 | 0.00 | 0.00 | 35 | 1016.7 |
| 20260507011038 | 52 | 247 | 0.0 | 0.0 | 0.00 | 0.00 | 0.00 | 33 | 1016.8 |
| 20260507010532 | 53 | 227 | 1.0 | 1.0 | 0.00 | 0.00 | 0.00 | 32 | 1016.6 |
| 20260507010029 | 53 | 259 | 0.0 | 1.0 | 0.00 | 0.00 | 0.00 | 32 | 1016.6 |
| 20260507005527 | 54 | 270 | 0.0 | 2.0 | 0.00 | 0.00 | 0.00 | 31 | 1016.6 |
| 20260507005023 | 54 | 10 | 3.0 | 5.0 | 0.00 | 0.00 | 0.00 | 31 | 1016.8 |
| 20260507004520 | 54 | 2 | 1.0 | 5.0 | 0.00 | 0.00 | 0.00 | 30 | 1016.6 |
| 20260507004017 | 55 | 271 | 1.0 | 5.0 | 0.00 | 0.00 | 0.00 | 30 | 1016.8 |
| 20260507003512 | 56 | 16 | 2.0 | 6.0 | 0.00 | 0.00 | 0.00 | 29 | 1016.8 |
| 20260507003008 | 57 | 333 | 2.0 | 5.0 | 0.00 | 0.00 | 0.00 | 28 | 1016.7 |
| 20260507002504 | 57 | 257 | 0.0 | 2.0 | 0.00 | 0.00 | 0.00 | 28 | 1016.7 |
| 20260507002001 | 57 | 237 | 1.0 | 1.0 | 0.00 | 0.00 | 0.00 | 28 | 1016.7 |
| 20260507001457 | 57 | 254 | 1.0 | 3.0 | 0.00 | 0.00 | 0.00 | 27 | 1016.8 |
| 20260507000955 | 57 | 302 | 1.0 | 2.0 | 0.00 | 0.00 | 0.00 | 28 | 1016.9 |
| 20260507000450 | 57 | 275 | 4.0 | 7.0 | 0.00 | 0.00 | 0.00 | 27 | 1017.0 |
| 20260506235946 | 58 | 251 | 1.0 | 6.0 | 0.00 | 0.00 | 0.00 | 27 | 1017.1 |
| 20260506235444 | 58 | 7 | 2.0 | 5.0 | 0.00 | 0.00 | 0.00 | 27 | 1016.8 |
| 20260506234939 | 58 | 334 | 1.0 | 2.0 | 0.00 | 0.00 | 0.00 | 28 | 1017.0 |
| 20260506234437 | 59 | 294 | 2.0 | 2.0 | 0.00 | 0.00 | 0.00 | 26 | 1017.2 |
| 20260506233934 | 59 | 257 | 0.0 | 2.0 | 0.00 | 0.00 | 0.00 | 27 | 1016.9 |
| 20260506233431 | 59 | 268 | 2.0 | 2.0 | 0.00 | 0.00 | 0.00 | 27 | 1016.9 |
| 20260506232928 | 59 | 287 | 1.0 | 7.0 | 0.00 | 0.00 | 0.00 | 27 | 1017.0 |
| 20260506232424 | 59 | 252 | 1.0 | 5.0 | 0.00 | 0.00 | 0.00 | 27 | 1017.1 |
| 20260506231920 | 58 | 248 | 0.0 | 1.0 | 0.00 | 0.00 | 0.00 | 28 | 1017.1 |
| 20260506231418 | 57 | 258 | 1.0 | 3.0 | 0.00 | 0.00 | 0.00 | 28 | 1017.3 |
| 20260506230915 | 56 | 239 | 1.0 | 1.0 | 0.00 | 0.00 | 0.00 | 30 | 1017.1 |
| 20260506230411 | 57 | 241 | 1.0 | 2.0 | 0.00 | 0.00 | 0.00 | 29 | 1017.1 |
| 20260506225907 | 57 | 252 | 1.0 | 3.0 | 0.00 | 0.00 | 0.00 | 29 | 1017.3 |
| 20260506225405 | 57 | 245 | 2.0 | 3.0 | 0.00 | 0.00 | 0.00 | 30 | 1017.4 |
| 20260506224902 | 57 | 324 | 2.0 | 3.0 | 0.00 | 0.00 | 0.00 | 29 | 1017.2 |
| 20260506224359 | 56 | 12 | 3.0 | 7.0 | 0.00 | 0.00 | 0.00 | 29 | 1017.1 |
| 20260506223855 | 56 | 273 | 3.0 | 6.0 | 0.00 | 0.00 | 0.00 | 29 | 1017.3 |
| 20260506223350 | 57 | 84 | 6.0 | 8.0 | 0.00 | 0.00 | 0.00 | 28 | 1017.4 |
| 20260506222848 | 57 | 303 | 4.0 | 6.0 | 0.00 | 0.00 | 0.00 | 28 | 1017.2 |
| 20260506222343 | 57 | 277 | 5.0 | 6.0 | 0.00 | 0.00 | 0.00 | 28 | 1017.6 |
| 20260506221842 | 57 | 340 | 1.0 | 3.0 | 0.00 | 0.00 | 0.00 | 29 | 1017.3 |
| 20260506221339 | 57 | 335 | 2.0 | 3.0 | 0.00 | 0.00 | 0.00 | 28 | 1017.1 |
| 20260506220836 | 58 | 326 | 1.0 | 7.0 | 0.00 | 0.00 | 0.00 | 29 | 1017.3 |
| 20260506220331 | 59 | 25 | 5.0 | 13.0 | 0.00 | 0.00 | 0.00 | 27 | 1017.5 |
| 20260506215829 | 58 | 243 | 2.0 | 6.0 | 0.00 | 0.00 | 0.00 | 26 | 1017.4 |
| 20260506215324 | 57 | 236 | 3.0 | 5.0 | 0.00 | 0.00 | 0.00 | 27 | 1017.4 |
| 20260506214820 | 56 | 323 | 2.0 | 8.0 | 0.00 | 0.00 | 0.00 | 28 | 1017.3 |
| 20260506214317 | 57 | 230 | 6.0 | 7.0 | 0.00 | 0.00 | 0.00 | 28 | 1017.4 |
| 20260506213816 | 58 | 0 | 2.0 | 6.0 | 0.00 | 0.00 | 0.00 | 27 | 1017.4 |
| 20260506213312 | 59 | 284 | 2.0 | 3.0 | 0.00 | 0.00 | 0.00 | 28 | 1017.4 |
| 20260506212810 | 58 | 16 | 1.0 | 2.0 | 0.00 | 0.00 | 0.00 | 27 | 1017.5 |
| 20260506212307 | 59 | 263 | 6.0 | 10.0 | 0.00 | 0.00 | 0.00 | 27 | 1017.5 |
| 20260506211800 | 58 | 248 | 4.0 | 6.0 | 0.00 | 0.00 | 0.00 | 27 | 1017.4 |
| 20260506211257 | 58 | 265 | 1.0 | 3.0 | 0.00 | 0.00 | 0.00 | 27 | 1017.6 |
| 20260506210754 | 58 | 306 | 1.0 | 2.0 | 0.00 | 0.00 | 0.00 | 28 | 1017.5 |
| 20260506210251 | 57 | 43 | 2.0 | 5.0 | 0.00 | 0.00 | 0.00 | 28 | 1017.6 |
| 20260506205748 | 57 | 311 | 2.0 | 6.0 | 0.00 | 0.00 | 0.00 | 28 | 1017.8 |
| 20260506205244 | 58 | 263 | 3.0 | 5.0 | 0.00 | 0.00 | 0.00 | 28 | 1017.7 |
| 20260506204741 | 58 | 276 | 3.0 | 5.0 | 0.00 | 0.00 | 0.00 | 28 | 1018.0 |
| 20260506204238 | 60 | 273 | 1.0 | 8.0 | 0.00 | 0.00 | 0.00 | 26 | 1017.9 |
| 20260506203736 | 58 | 266 | 2.0 | 3.0 | 0.00 | 0.00 | 0.00 | 30 | 1017.9 |
| 20260506203233 | 59 | 276 | 2.0 | 9.0 | 0.00 | 0.00 | 0.00 | 27 | 1017.9 |
| 20260506202730 | 61 | 264 | 3.0 | 8.0 | 0.00 | 0.00 | 0.00 | 27 | 1017.9 |
| 20260506202227 | 62 | 191 | 4.0 | 10.0 | 0.00 | 0.00 | 0.00 | 25 | 1017.9 |
| 20260506201724 | 60 | 158 | 1.0 | 3.0 | 0.00 | 0.00 | 0.00 | 31 | 1017.9 |
| 20260506201220 | 59 | 298 | 4.0 | 8.0 | 0.00 | 0.00 | 0.00 | 27 | 1018.1 |
| 20260506200717 | 58 | 254 | 1.0 | 2.0 | 0.00 | 0.00 | 0.00 | 31 | 1018.1 |
| 20260506200214 | 58 | 323 | 3.0 | 9.0 | 0.00 | 0.00 | 0.00 | 30 | 1018.1 |
| 20260506195711 | 57 | 269 | 3.0 | 7.0 | 0.00 | 0.00 | 0.00 | 29 | 1018.1 |
| 20260506195207 | 58 | 203 | 4.0 | 7.0 | 0.00 | 0.00 | 0.00 | 30 | 1018.4 |
| 20260506194704 | 59 | 81 | 4.0 | 9.0 | 0.00 | 0.00 | 0.00 | 28 | 1018.2 |
| 20260506194201 | 58 | 247 | 5.0 | 11.0 | 0.00 | 0.00 | 0.00 | 28 | 1018.4 |
| 20260506193658 | 57 | 8 | 3.0 | 9.0 | 0.00 | 0.00 | 0.00 | 29 | 1018.2 |
| 20260506193155 | 57 | 254 | 5.0 | 10.0 | 0.00 | 0.00 | 0.00 | 28 | 1018.4 |
| 20260506192652 | 58 | 277 | 5.0 | 8.0 | 0.00 | 0.00 | 0.00 | 30 | 1018.2 |
| 20260506192148 | 57 | 266 | 2.0 | 3.0 | 0.00 | 0.00 | 0.00 | 31 | 1018.4 |
| 20260506191645 | 56 | 309 | 3.0 | 6.0 | 0.00 | 0.00 | 0.00 | 31 | 1018.4 |
| 20260506191141 | 56 | 247 | 1.0 | 6.0 | 0.00 | 0.00 | 0.00 | 31 | 1018.5 |
| 20260506190639 | 57 | 32 | 2.0 | 7.0 | 0.00 | 0.00 | 0.00 | 31 | 1018.5 |
| 20260506190135 | 57 | 296 | 2.0 | 3.0 | 0.00 | 0.00 | 0.00 | 32 | 1018.4 |
| 20260506185632 | 56 | 215 | 4.0 | 8.0 | 0.00 | 0.00 | 0.00 | 30 | 1018.2 |
| 20260506185128 | 56 | 221 | 1.0 | 7.0 | 0.00 | 0.00 | 0.00 | 31 | 1018.4 |
| 20260506184626 | 56 | 302 | 5.0 | 8.0 | 0.00 | 0.00 | 0.00 | 29 | 1018.4 |
| 20260506184123 | 58 | 290 | 3.0 | 7.0 | 0.00 | 0.00 | 0.00 | 30 | 1018.6 |
| 20260506183620 | 57 | 258 | 1.0 | 3.0 | 0.00 | 0.00 | 0.00 | 30 | 1018.6 |
| 20260506183116 | 56 | 251 | 3.0 | 5.0 | 0.00 | 0.00 | 0.00 | 32 | 1018.7 |
| 20260506182614 | 56 | 323 | 3.0 | 5.0 | 0.00 | 0.00 | 0.00 | 32 | 1018.9 |
| 20260506182110 | 56 | 334 | 2.0 | 3.0 | 0.00 | 0.00 | 0.00 | 31 | 1018.8 |
| 20260506181608 | 57 | 316 | 2.0 | 5.0 | 0.00 | 0.00 | 0.00 | 31 | 1018.7 |
| 20260506181105 | 57 | 277 | 2.0 | 9.0 | 0.00 | 0.00 | 0.00 | 32 | 1018.8 |
| 20260506180602 | 56 | 224 | 1.0 | 5.0 | 0.00 | 0.00 | 0.00 | 32 | 1018.8 |
| 20260506180058 | 55 | 337 | 2.0 | 11.0 | 0.00 | 0.00 | 0.00 | 32 | 1018.9 |
| 20260506175554 | 54 | 334 | 3.0 | 6.0 | 0.00 | 0.00 | 0.00 | 34 | 1018.9 |
| 20260506175051 | 53 | 212 | 2.0 | 2.0 | 0.00 | 0.00 | 0.00 | 34 | 1019.3 |
| 20260506174550 | 54 | 295 | 3.0 | 7.0 | 0.00 | 0.00 | 0.00 | 33 | 1019.1 |
| 20260506174045 | 55 | 217 | 3.0 | 3.0 | 0.00 | 0.00 | 0.00 | 34 | 1019.1 |
| 20260506173543 | 57 | 323 | 6.0 | 7.0 | 0.00 | 0.00 | 0.00 | 31 | 1019.1 |
| 20260506173040 | 56 | 249 | 2.0 | 3.0 | 0.00 | 0.00 | 0.00 | 34 | 1019.0 |
| 20260506172537 | 55 | 270 | 4.0 | 9.0 | 0.00 | 0.00 | 0.00 | 31 | 1019.2 |
| 20260506172033 | 55 | 275 | 1.0 | 3.0 | 0.00 | 0.00 | 0.00 | 32 | 1019.1 |
| 20260506171531 | 54 | 271 | 3.0 | 8.0 | 0.00 | 0.00 | 0.00 | 33 | 1018.8 |
| 20260506171028 | 54 | 239 | 3.0 | 3.0 | 0.00 | 0.00 | 0.00 | 33 | 1019.2 |
| 20260506170526 | 54 | 348 | 3.0 | 6.0 | 0.00 | 0.00 | 0.00 | 32 | 1019.2 |
| 20260506170018 | 53 | 253 | 3.0 | 5.0 | 0.00 | 0.00 | 0.00 | 35 | 1019.3 |
| 20260506165516 | 54 | 220 | 3.0 | 7.0 | 0.00 | 0.00 | 0.00 | 34 | 1019.5 |
| 20260506165012 | 54 | 37 | 3.0 | 3.0 | 0.00 | 0.00 | 0.00 | 33 | 1019.5 |
| 20260506164508 | 54 | 238 | 2.0 | 2.0 | 0.00 | 0.00 | 0.00 | 34 | 1019.0 |
| 20260506164006 | 54 | 269 | 2.0 | 6.0 | 0.00 | 0.00 | 0.00 | 33 | 1019.3 |
| 20260506163502 | 54 | 276 | 1.0 | 2.0 | 0.00 | 0.00 | 0.00 | 33 | 1019.2 |
| 20260506162956 | 54 | 222 | 3.0 | 5.0 | 0.00 | 0.00 | 0.00 | 33 | 1019.2 |
| 20260506162454 | 53 | 340 | 2.0 | 2.0 | 0.00 | 0.00 | 0.00 | 34 | 1019.3 |
| 20260506161945 | 55 | 308 | 4.0 | 8.0 | 0.00 | 0.00 | 0.00 | 32 | 1019.3 |
| 20260506161443 | 55 | 217 | 1.0 | 6.0 | 0.00 | 0.00 | 0.00 | 34 | 1019.2 |
| 20260506160940 | 55 | 289 | 2.0 | 5.0 | 0.00 | 0.00 | 0.00 | 33 | 1019.0 |
| 20260506160437 | 55 | 266 | 4.0 | 8.0 | 0.00 | 0.00 | 0.00 | 35 | 1019.0 |
| 20260506155935 | 54 | 225 | 1.0 | 5.0 | 0.00 | 0.00 | 0.00 | 36 | 1018.9 |
| 20260506155432 | 53 | 332 | 1.0 | 6.0 | 0.00 | 0.00 | 0.00 | 35 | 1019.2 |
| 20260506153554 | 53 | 220 | 3.0 | 5.0 | 0.00 | 0.00 | 0.00 | 37 | 1019.1 |
| 20260506153051 | 54 | 285 | 3.0 | 6.0 | 0.00 | 0.00 | 0.00 | 38 | 1019.0 |
| 20260506152548 | 53 | 23 | 1.0 | 2.0 | 0.00 | 0.00 | 0.00 | 40 | 1019.3 |
| 20260506152046 | 53 | 285 | 3.0 | 10.0 | 0.00 | 0.00 | 0.00 | 38 | 1019.1 |
| 20260506151544 | 53 | 183 | 2.0 | 2.0 | 0.00 | 0.00 | 0.00 | 37 | 1019.0 |
| 20260506151041 | 52 | 325 | 1.0 | 6.0 | 0.00 | 0.00 | 0.00 | 38 | 1018.9 |
| 20260506150537 | 52 | 11 | 3.0 | 3.0 | 0.00 | 0.00 | 0.00 | 38 | 1019.0 |
| 20260506150034 | 52 | 257 | 1.0 | 2.0 | 0.00 | 0.00 | 0.00 | 38 | 1019.1 |
| 20260506145531 | 51 | 263 | 2.0 | 2.0 | 0.00 | 0.00 | 0.00 | 41 | 1018.9 |
| 20260506145028 | 51 | 265 | 1.0 | 5.0 | 0.00 | 0.00 | 0.00 | 41 | 1019.1 |
| 20260506144525 | 50 | 259 | 2.0 | 2.0 | 0.00 | 0.00 | 0.00 | 42 | 1018.9 |
| 20260506144023 | 49 | 298 | 1.0 | 6.0 | 0.00 | 0.00 | 0.00 | 42 | 1019.1 |
| 20260506143520 | 49 | 6 | 3.0 | 3.0 | 0.00 | 0.00 | 0.00 | 43 | 1019.3 |
| 20260506143018 | 48 | 274 | 1.0 | 2.0 | 0.00 | 0.00 | 0.00 | 46 | 1018.9 |
| 20260506142515 | 48 | 23 | 2.0 | 7.0 | 0.00 | 0.00 | 0.00 | 46 | 1019.0 |
| 20260506142014 | 49 | 28 | 2.0 | 6.0 | 0.00 | 0.00 | 0.00 | 43 | 1019.2 |
| 20260506141511 | 48 | 7 | 3.0 | 3.0 | 0.00 | 0.00 | 0.00 | 46 | 1019.1 |
| 20260506141010 | 48 | 322 | 2.0 | 5.0 | 0.00 | 0.00 | 0.00 | 48 | 1019.0 |
| 20260506140507 | 47 | 346 | 1.0 | 6.0 | 0.00 | 0.00 | 0.00 | 49 | 1018.9 |
| 20260506140004 | 47 | 26 | 2.0 | 7.0 | 0.00 | 0.00 | 0.00 | 48 | 1018.8 |
| 20260506135500 | 47 | 338 | 1.0 | 2.0 | 0.00 | 0.00 | 0.00 | 49 | 1018.8 |
| 20260506134956 | 47 | 348 | 4.0 | 7.0 | 0.00 | 0.00 | 0.00 | 49 | 1018.6 |
| 20260506134452 | 46 | 327 | 3.0 | 5.0 | 0.00 | 0.00 | 0.00 | 52 | 1018.5 |
| 20260506133949 | 45 | 325 | 1.0 | 5.0 | 0.00 | 0.00 | 0.00 | 52 | 1018.4 |
| 20260506133446 | 45 | 316 | 2.0 | 5.0 | 0.00 | 0.00 | 0.00 | 52 | 1018.3 |
| 20260506132943 | 45 | 351 | 5.0 | 6.0 | 0.00 | 0.00 | 0.00 | 51 | 1018.4 |
| 20260506132440 | 45 | 340 | 2.0 | 5.0 | 0.00 | 0.00 | 0.00 | 52 | 1018.4 |
| 20260506131938 | 44 | 329 | 1.0 | 5.0 | 0.00 | 0.00 | 0.00 | 53 | 1018.2 |
| 20260506131434 | 45 | 358 | 2.0 | 3.0 | 0.00 | 0.00 | 0.00 | 52 | 1018.2 |
| 20260506130931 | 45 | 324 | 2.0 | 3.0 | 0.00 | 0.00 | 0.00 | 54 | 1018.1 |
| 20260506130427 | 44 | 319 | 2.0 | 3.0 | 0.00 | 0.00 | 0.00 | 55 | 1018.1 |
| 20260506125926 | 43 | 261 | 0.0 | 1.0 | 0.00 | 0.00 | 0.00 | 58 | 1018.0 |
| 20260506125423 | 43 | 256 | 0.0 | 1.0 | 0.00 | 0.00 | 0.00 | 59 | 1018.3 |
| 20260506124922 | 43 | 255 | 0.0 | 1.0 | 0.00 | 0.00 | 0.00 | 59 | 1018.2 |
| 20260506124419 | 43 | 273 | 1.0 | 2.0 | 0.00 | 0.00 | 0.00 | 57 | 1018.3 |
| 20260506123917 | 43 | 269 | 1.0 | 2.0 | 0.00 | 0.00 | 0.00 | 59 | 1017.9 |
| 20260506123414 | 42 | 253 | 0.0 | 1.0 | 0.00 | 0.00 | 0.00 | 59 | 1017.9 |
| 20260506122911 | 42 | 259 | 0.0 | 0.0 | 0.00 | 0.00 | 0.00 | 60 | 1017.9 |
| 20260506122408 | 42 | 259 | 0.0 | 0.0 | 0.00 | 0.00 | 0.00 | 60 | 1017.8 |
| 20260506121907 | 41 | 258 | 0.0 | 0.0 | 0.00 | 0.00 | 0.00 | 61 | 1017.9 |
| 20260506121403 | 41 | 227 | 0.0 | 0.0 | 0.00 | 0.00 | 0.00 | 63 | 1017.9 |
| 20260506120900 | 40 | 256 | 0.0 | 1.0 | 0.00 | 0.00 | 0.00 | 63 | 1017.5 |
| 20260506120357 | 40 | 257 | 0.0 | 0.0 | 0.00 | 0.00 | 0.00 | 63 | 1017.7 |
| 20260506115855 | 40 | 253 | 0.0 | 0.0 | 0.00 | 0.00 | 0.00 | 64 | 1017.6 |
| 20260506115353 | 39 | 254 | 0.0 | 0.0 | 0.00 | 0.00 | 0.00 | 65 | 1017.6 |
| 20260506114851 | 39 | 253 | 0.0 | 0.0 | 0.00 | 0.00 | 0.00 | 67 | 1017.3 |
| 20260506114348 | 39 | 253 | 0.0 | 0.0 | 0.00 | 0.00 | 0.00 | 67 | 1017.5 |